Temperature
12 12 12 12 12 12 13 13 13 13 13 13 13 13 13 13 13 13 14 14 14 14 14 14 15 15 15 15 15 16 16 16 16 16 15 15 15 15 16 16 16 16 17
12 12 12 12 12 12 12 12 12 12 12 12 12 12 12 12 13 13 13 14 14 14 14 14 15 15 15 15 15 15 15 16 16 16 15 15 15 15 16 16 16 16 16
11 11 12 12 12 12 12 12 12 12 12 12 12 12 12 12 12 12 12 13 13 13 13 14 14 14 15 15 15 15 15 15 16 16 15 15 15 15 15 15 16 16 16
10 10 10 11 12 12 12 11 11 11 12 12 12 12 12 12 12 12 12 12 13 13 13 13 14 14 14 14 14 14 15 15 15 15 15 15 15 15 15 15 15 16 16
8 8 8 9 10 11 11 11 11 11 11 11 11 11 11 11 12 12 12 12 12 13 13 13 14 14 14 14 14 14 14 15 15 15 15 15 15 15 15 15 15 15 15
6 6 6 7 8 9 10 10 10 10 10 11 11 11 11 11 11 11 12 12 12 13 13 13 13 13 13 13 14 14 14 14 14 14 15 15 15 15 14 14 14 14 15
4 4 5 6 6 7 8 9 9 10 10 10 10 10 11 11 11 11 12 12 12 12 13 13 13 13 13 13 13 13 13 14 14 14 14 14 14 14 14 14 14 14 14
2 3 3 4 5 6 7 8 8 9 9 9 9 9 10 10 11 11 11 12 12 12 12 13 13 13 13 13 13 13 13 13 13 13 13 13 13 13 13 13 13 14 14
2 2 2 3 3 4 5 6 7 8 8 9 9 9 9 10 10 11 11 11 12 12 12 12 12 13 13 13 13 13 13 13 13 13 13 13 13 13 13 13 13 13 13
1 1 1 2 3 3 4 5 6 6 7 7 8 8 9 9 10 10 10 11 11 11 12 12 12 12 12 12 13 13 13 13 13 13 13 13 13 13 13 13 13 13 13
-2 -2 -1 0 2 2 3 4 5 6 6 6 7 7 8 8 9 10 10 10 10 11 11 11 11 12 12 12 12 12 13 13 13 12 12 12 12 12 12 12 12 13 13
-5 -4 -3 -2 -1 1 2 3 3 4 5 6 6 7 7 8 8 9 9 9 10 10 10 10 10 11 11 12 12 12 12 12 12 12 12 12 12 12 12 12 12 12 12
-6 -5 -4 -3 -2 -2 -0 1 2 3 4 5 6 6 6 7 8 9 9 9 9 9 9 9 9 10 10 11 11 11 11 11 11 11 11 11 11 11 11 12 12 12 12
-6 -6 -5 -4 -3 -2 -2 -1 1 2 3 4 5 5 6 6 7 8 9 9 9 8 8 9 9 9 9 9 10 10 10 10 10 10 10 10 10 10 10 11 11 11 11
-7 -6 -5 -4 -3 -2 -2 -1 -1 1 2 3 4 5 5 5 6 7 8 8 8 8 8 8 8 9 9 9 9 9 9 9 9 9 9 9 9 9 10 10 10 10 11
-7 -6 -6 -5 -3 -2 -2 -1 -1 0 1 3 3 4 4 5 6 6 7 7 7 8 7 7 8 8 8 8 8 8 8 8 8 8 8 9 9 9 9 9 9 9 9
-7 -7 -6 -5 -4 -3 -2 -2 -1 -0 1 2 2 3 3 4 5 6 6 6 6 7 7 7 7 7 7 7 7 7 7 7 7 7 7 8 8 8 8 8 8 8 8
-7 -7 -6 -6 -5 -4 -4 -3 -2 -1 0 1 1 2 2 3 4 4 5 5 6 6 6 6 6 6 7 7 7 7 7 7 7 7 7 7 7 7 7 7 7 7 7
-8 -7 -7 -6 -6 -5 -5 -4 -3 -2 -2 -1 -0 0 1 1 2 3 3 4 4 5 5 5 5 6 6 6 6 6 6 6 6 6 6 6 6 6 6 6 6 6 6
-9 -8 -7 -7 -6 -6 -6 -5 -5 -4 -3 -2 -2 -1 -1 -0 0 1 2 3 3 4 4 4 5 5 5 6 6 6 6 6 6 6 5 5 5 5 5 5 5 6 6
-10 -9 -8 -7 -7 -6 -6 -6 -6 -5 -5 -4 -3 -3 -2 -2 -1 -0 0 1 2 2 2 3 3 4 4 5 5 5 5 5 5 5 5 5 5 5 5 5 5 5 5
-10 -10 -9 -8 -7 -7 -6 -7 -7 -7 -6 -6 -5 -5 -4 -3 -2 -2 -1 -1 -0 0 1 1 2 2 3 3 4 5 5 5 4 4 4 4 4 4 4 4 4 4 4
-11 -11 -10 -9 -8 -8 -7 -8 -8 -8 -8 -8 -7 -6 -6 -5 -4 -3 -3 -2 -2 -1 -1 0 1 1 2 2 3 3 4 4 4 4 4 4 3 3 3 3 3 3 3
-12 -12 -11 -10 -9 -9 -8 -8 -9 -9 -9 -9 -9 -9 -8 -7 -6 -5 -5 -4 -4 -3 -2 -2 -1 -1 -0 0 1 2 2 3 3 3 3 3 2 2 2 2 2 2 2
-13 -12 -12 -11 -11 -10 -9 -9 -9 -9 -9 -9 -9 -9 -8 -8 -8 -7 -6 -6 -5 -5 -5 -4 -3 -3 -2 -2 -1 0 1 1 2 1 1 1 1 1 1 1 1 1 1
-14 -13 -13 -12 -12 -11 -10 -9 -9 -9 -10 -10 -10 -9 -9 -9 -9 -8 -8 -7 -6 -6 -6 -6 -5 -5 -4 -4 -3 -2 -1 -1 0 0 -0 0 0 -0 -0 -0 -1 -0 -0
Wind_Speed
10 10 8 9 7 6 4 4 4 4 5 5 6 6 6 7 9 11 11 15 17 18 20 21 21 21 22 21 20 19 18 17 15 14 12 11 9 8 7 6 5 4 4
14 10 9 7 7 8 6 4 5 5 5 5 6 6 6 7 8 10 12 14 17 19 20 22 23 23 23 22 22 21 20 19 17 15 14 12 11 9 8 6 5 4 3
19 14 10 10 9 12 9 6 5 4 5 5 7 7 6 6 7 9 11 12 14 17 21 23 24 23 24 23 22 22 21 20 19 17 16 14 12 10 9 7 6 4 3
22 16 9 10 14 13 7 6 6 5 5 5 6 6 6 6 7 8 9 11 12 13 16 21 24 24 24 23 22 23 23 22 21 19 18 15 13 11 10 8 6 5 4
21 17 10 10 15 10 8 8 6 5 6 6 7 7 6 6 7 7 7 8 11 13 14 16 22 25 25 24 23 23 23 23 22 21 19 17 15 13 11 9 7 5 4
21 18 11 12 13 10 9 9 9 8 6 6 7 6 6 6 6 6 8 7 8 11 14 14 14 17 23 26 25 24 24 24 24 23 21 19 16 14 12 10 7 5 4
21 17 11 11 11 10 11 12 10 10 7 5 4 5 5 6 7 6 6 6 7 8 10 12 12 12 13 22 26 26 25 24 24 24 23 21 19 16 13 10 7 5 4
21 18 13 13 13 12 13 12 10 8 6 5 5 4 4 4 5 5 4 5 6 5 7 9 10 10 11 11 16 23 24 24 23 24 24 24 21 18 14 10 8 6 5
21 19 15 12 13 12 12 13 12 10 10 7 7 6 5 7 3 2 2 3 4 5 6 6 7 9 11 11 12 17 21 23 23 23 23 23 22 19 15 11 9 7 6
20 19 17 14 12 12 13 13 13 10 10 10 6 7 5 4 5 3 2 1 1 3 4 5 6 7 9 10 12 15 19 22 24 23 22 22 21 18 15 13 10 8 7
15 16 16 12 12 11 13 14 15 14 10 10 8 5 5 3 3 4 4 2 1 1 1 2 4 4 7 9 10 13 17 19 23 24 22 21 19 17 15 13 11 11 10
13 13 16 10 10 11 12 13 14 16 14 11 9 6 5 4 5 4 4 3 3 1 1 1 2 3 3 7 10 13 14 13 15 19 19 18 17 15 13 14 15 13 12
16 19 20 16 14 13 13 13 14 15 14 13 10 9 8 7 5 5 5 4 3 1 1 1 1 1 2 5 8 14 14 14 14 15 16 15 14 16 16 16 15 15 14
17 20 22 21 20 19 17 14 14 15 13 13 12 9 8 7 5 5 6 6 4 1 0 2 1 0 1 4 9 13 13 17 18 18 18 17 17 17 16 16 16 16 15
18 21 22 22 21 20 18 16 13 14 13 12 10 9 8 6 5 4 4 5 7 5 4 3 2 0 1 3 10 10 12 17 18 18 19 19 18 18 17 17 17 17 16
19 21 22 21 21 19 17 15 12 11 12 10 7 7 8 5 5 4 5 4 4 5 4 4 3 0 2 2 7 9 11 18 18 18 18 18 19 19 18 18 17 17 17
20 20 21 21 20 19 18 16 13 10 8 7 4 4 4 4 5 5 5 5 5 4 4 2 1 1 2 4 4 5 8 11 14 18 18 18 18 18 18 17 17 17 16
19 19 19 20 19 19 19 19 17 13 9 6 3 2 2 2 5 5 5 5 5 4 4 3 2 2 2 3 4 5 4 8 10 18 19 19 19 18 17 17 16 16 16
19 19 18 19 19 17 17 18 18 17 14 11 9 6 5 4 5 5 5 5 4 3 3 4 2 2 2 2 3 3 4 3 4 12 18 18 18 18 16 15 15 15 16
18 18 17 16 17 16 14 15 17 17 16 14 13 12 11 8 5 6 5 5 4 4 3 4 3 3 2 1 3 4 4 3 3 3 8 11 12 12 12 13 13 14 14
19 18 16 15 16 15 12 12 13 15 15 15 15 14 15 17 16 8 6 5 4 3 3 3 3 3 2 2 2 3 4 5 5 3 5 5 6 8 10 13 15 16 16
17 18 16 15 15 14 19 19 14 10 12 13 13 13 13 16 18 18 17 14 11 6 3 2 2 3 3 2 1 2 5 5 4 2 4 5 5 7 6 12 18 19 19
16 16 16 15 15 18 25 18 17 9 9 10 11 11 10 12 14 12 15 18 18 19 14 5 4 4 3 2 1 2 2 3 4 1 3 4 5 8 7 14 18 19 18
13 12 13 15 15 18 26 21 13 8 7 9 9 9 9 10 10 10 10 10 10 10 10 10 8 8 7 6 5 3 5 7 7 5 3 4 3 4 6 10 15 16 15
11 12 11 13 14 17 25 24 13 5 5 7 9 10 9 7 14 14 10 9 10 11 17 22 22 20 21 18 11 5 3 5 4 4 5 3 3 3 4 5 10 13 14
13 13 12 12 13 14 22 24 17 5 6 7 7 10 13 13 17 16 9 8 9 9 9 12 15 17 16 18 20 12 6 4 4 3 5 3 3 3 3 2 3 8 10
Wind_Direction
350 342 332 323 310 297 279 272 262 259 257 256 252 243 239 238 241 245 251 253 251 252 254 251 236 224 216 209 206 205 205 206 207 207 207 206 204 198 193 186 179 179 193
354 346 336 328 320 309 288 267 261 263 263 258 257 248 243 243 243 243 244 249 249 249 250 250 245 231 222 215 209 207 207 209 210 210 210 210 211 208 206 205 198 190 193
355 349 341 337 332 322 302 280 262 247 250 249 252 251 247 240 239 241 242 242 246 247 246 246 245 236 226 220 214 210 210 212 212 212 212 213 214 215 214 213 207 199 195
353 348 339 335 333 327 310 291 272 262 252 244 246 247 241 240 239 237 237 235 237 242 244 242 241 237 229 225 222 218 214 212 213 212 211 211 212 214 214 213 207 200 198
349 343 331 328 330 326 316 303 286 256 255 254 249 247 237 234 237 238 233 230 230 231 235 239 237 235 229 227 228 227 223 217 214 212 210 207 208 209 210 207 203 199 198
342 338 328 328 328 324 322 314 297 276 250 248 255 251 240 235 233 233 238 235 230 229 229 231 235 235 231 225 226 229 228 224 219 214 209 204 205 206 204 203 201 200 202
337 332 329 325 324 319 314 309 301 287 268 241 240 260 261 243 236 234 232 234 233 229 225 225 226 227 229 229 224 225 226 226 224 219 211 203 201 202 200 202 203 207 212
333 331 329 325 321 318 314 311 308 293 277 232 212 229 264 286 254 236 232 231 234 226 223 220 218 218 218 218 221 222 223 224 226 225 217 206 199 198 196 200 208 215 219
330 328 325 323 319 317 313 311 306 294 285 268 224 205 204 225 244 261 235 231 236 227 228 221 214 215 216 215 215 219 219 222 225 225 219 209 201 196 193 197 206 211 207
324 323 323 320 317 316 312 310 309 300 285 275 254 230 225 191 181 219 257 236 216 221 232 231 224 218 215 216 217 215 214 215 220 219 215 210 204 197 196 199 202 185 149
315 313 313 310 310 309 306 306 307 301 287 271 256 231 222 235 204 168 204 232 224 201 237 238 227 218 209 210 213 214 211 212 217 214 209 206 203 200 199 196 178 147 131
323 316 314 303 300 299 299 300 298 295 288 274 259 235 207 189 192 176 173 188 206 240 291 285 216 203 192 196 202 195 187 186 196 195 190 189 191 187 169 146 137 132 124
330 328 327 320 314 304 298 293 290 289 284 272 257 244 237 225 189 174 163 158 171 222 314 287 280 209 182 169 169 159 149 136 128 129 133 137 139 139 138 135 132 127 120
326 326 326 322 317 311 303 293 288 284 279 267 256 242 239 231 202 180 165 150 143 147 322 259 307 234 172 161 157 144 141 135 131 130 130 130 130 132 134 133 131 127 123
327 330 329 326 322 314 305 295 285 283 278 265 251 237 232 221 201 184 160 153 149 160 199 228 236 213 127 137 159 146 146 147 146 145 144 143 141 139 136 133 131 129 126
330 332 334 332 330 326 319 307 290 284 277 265 247 224 213 201 180 163 147 130 128 140 173 207 210 175 141 131 161 148 152 153 152 151 150 147 144 141 138 136 134 131 128
332 336 338 337 340 345 343 335 322 307 293 280 258 208 194 174 151 137 129 123 116 121 141 161 127 108 124 145 143 144 152 151 155 155 154 150 146 144 142 139 135 133 131
335 337 341 343 346 354 357 355 350 348 348 338 335 76 86 115 105 104 108 109 118 124 134 150 143 117 120 151 147 150 152 162 161 166 161 157 154 153 151 147 143 140 137
337 338 343 345 346 355 8 7 6 3 7 9 8 30 42 68 84 85 93 101 109 117 124 140 143 95 87 96 120 126 135 129 159 173 168 165 163 162 160 156 152 148 144
339 339 342 345 345 348 11 18 12 9 12 15 16 23 28 36 62 76 79 84 101 117 134 140 135 114 97 73 125 136 125 101 83 113 150 151 152 145 146 144 142 140 138
341 339 341 346 347 347 4 33 21 14 14 17 18 19 23 26 33 56 79 72 75 86 118 140 139 133 123 106 138 133 131 114 62 63 93 77 90 84 90 110 118 121 118
340 342 344 346 347 347 358 28 36 20 20 21 19 16 18 25 22 32 51 62 66 64 62 91 121 133 113 74 67 127 138 139 124 45 96 70 78 88 81 93 105 105 102
340 342 344 347 345 343 357 18 32 33 27 27 24 18 19 23 30 28 36 42 43 46 49 55 62 71 89 53 63 103 108 101 115 67 101 97 82 88 79 93 97 94 91
338 339 340 345 345 344 352 8 26 33 26 22 18 17 21 22 41 48 46 45 42 44 54 56 60 55 62 57 49 73 107 101 84 36 29 113 103 86 71 67 85 87 82
339 339 342 344 345 343 347 358 18 14 26 17 12 14 24 26 53 61 53 48 46 41 53 63 63 56 52 49 43 53 82 110 97 43 18 87 103 94 78 56 62 75 72
345 347 345 344 345 341 346 352 13 15 27 22 15 8 24 55 65 65 56 52 54 48 52 56 56 52 48 44 43 37 30 71 97 82 16 60 88 106 101 72 56 59 55
Height
1505 1503 1502 1500 1500 1499 1499 1499 1499 1499 1499 1499 1499 1500 1500 1500 1501 1501 1503 1505 1507 1509 1511 1513 1515 1517 1520 1522 1524 1527 1529 1531 1533 1535 1537 1539 1541 1542 1544 1546 1547 1549 1550
1502 1500 1499 1498 1496 1495 1495 1494 1494 1494 1494 1494 1494 1494 1495 1496 1496 1497 1498 1499 1501 1503 1505 1508 1510 1513 1515 1518 1520 1523 1525 1528 1530 1532 1534 1536 1538 1540 1542 1544 1545 1546 1548
1499 1496 1494 1493 1492 1491 1490 1489 1489 1489 1488 1488 1488 1489 1489 1490 1491 1492 1493 1494 1495 1497 1500 1502 1505 1507 1510 1513 1516 1518 1521 1524 1526 1528 1531 1533 1535 1537 1539 1541 1543 1544 1546
1494 1492 1490 1488 1486 1485 1484 1483 1483 1483 1483 1482 1482 1483 1483 1483 1484 1486 1487 1488 1489 1492 1494 1497 1499 1502 1505 1508 1511 1514 1516 1519 1522 1524 1527 1529 1532 1534 1536 1538 1540 1542 1543
1489 1486 1484 1482 1480 1478 1477 1477 1476 1476 1476 1476 1476 1476 1477 1477 1478 1479 1480 1482 1483 1485 1488 1491 1494 1497 1499 1502 1505 1508 1511 1514 1517 1520 1523 1525 1528 1531 1533 1535 1537 1539 1540
1483 1480 1478 1476 1473 1470 1469 1469 1469 1469 1469 1470 1470 1469 1470 1470 1471 1472 1473 1475 1477 1479 1481 1484 1487 1490 1493 1496 1499 1502 1505 1508 1511 1515 1518 1521 1525 1527 1530 1532 1534 1536 1537
1477 1474 1471 1468 1467 1464 1462 1461 1461 1461 1461 1463 1463 1463 1463 1464 1464 1465 1466 1468 1470 1472 1474 1477 1480 1483 1486 1490 1493 1496 1499 1502 1506 1509 1513 1517 1520 1523 1526 1528 1530 1532 1534
1472 1468 1465 1462 1460 1457 1455 1454 1454 1453 1453 1456 1457 1457 1456 1456 1456 1458 1459 1460 1462 1465 1467 1469 1472 1475 1479 1482 1485 1489 1492 1496 1499 1503 1507 1511 1515 1518 1521 1524 1526 1528 1530
1466 1462 1459 1456 1453 1450 1447 1446 1446 1446 1445 1447 1450 1451 1450 1448 1449 1450 1451 1452 1455 1457 1459 1462 1465 1468 1471 1474 1478 1482 1485 1489 1493 1497 1501 1505 1509 1512 1516 1519 1521 1524 1526
1461 1457 1453 1449 1446 1443 1440 1439 1438 1438 1438 1438 1440 1442 1444 1444 1444 1444 1445 1446 1448 1450 1452 1455 1457 1460 1463 1466 1470 1474 1478 1482 1487 1490 1494 1498 1502 1506 1510 1513 1516 1519 1521
1455 1451 1446 1442 1438 1435 1433 1431 1430 1429 1430 1430 1432 1434 1435 1436 1437 1438 1439 1441 1442 1444 1445 1447 1450 1453 1456 1459 1462 1466 1471 1475 1479 1484 1488 1493 1496 1500 1504 1507 1511 1513 1515
1451 1446 1440 1435 1431 1427 1424 1422 1421 1421 1421 1422 1424 1425 1427 1428 1429 1431 1433 1435 1437 1439 1440 1442 1444 1447 1449 1452 1455 1459 1463 1468 1472 1477 1481 1486 1490 1494 1498 1501 1505 1508 1510
1447 1441 1434 1428 1424 1420 1416 1414 1413 1412 1412 1413 1415 1416 1418 1421 1422 1424 1426 1429 1431 1434 1436 1438 1439 1441 1444 1446 1450 1453 1457 1461 1465 1470 1475 1480 1484 1488 1492 1496 1500 1503 1505
1446 1438 1431 1424 1419 1414 1410 1407 1405 1404 1404 1404 1406 1408 1410 1412 1415 1416 1419 1422 1425 1429 1431 1434 1436 1438 1441 1443 1446 1449 1453 1457 1461 1465 1470 1474 1479 1483 1487 1491 1495 1498 1501
1443 1435 1427 1420 1415 1410 1406 1402 1399 1397 1396 1396 1398 1400 1402 1404 1407 1409 1412 1415 1419 1422 1426 1430 1433 1435 1438 1441 1444 1447 1451 1454 1459 1463 1466 1471 1475 1479 1483 1487 1491 1494 1496
1440 1433 1425 1419 1413 1407 1402 1398 1394 1391 1390 1389 1390 1392 1394 1396 1399 1402 1405 1409 1412 1416 1421 1425 1429 1432 1435 1439 1442 1446 1450 1453 1457 1460 1464 1468 1472 1475 1479 1484 1487 1490 1492
1437 1431 1424 1418 1412 1406 1400 1394 1390 1387 1385 1384 1385 1385 1386 1389 1392 1395 1399 1403 1407 1411 1416 1421 1425 1429 1432 1436 1439 1444 1448 1451 1454 1458 1461 1465 1468 1472 1476 1480 1483 1486 1488
1435 1430 1424 1418 1412 1406 1399 1393 1388 1385 1383 1382 1381 1381 1382 1382 1385 1389 1394 1398 1403 1407 1412 1417 1421 1426 1429 1433 1437 1441 1445 1448 1452 1455 1459 1462 1466 1469 1473 1476 1480 1483 1485
1434 1429 1424 1418 1413 1407 1401 1394 1389 1385 1382 1380 1379 1378 1378 1379 1382 1386 1390 1395 1399 1404 1408 1413 1418 1422 1426 1430 1434 1438 1442 1446 1450 1453 1457 1460 1463 1467 1470 1473 1476 1479 1482
1434 1429 1424 1419 1414 1409 1404 1398 1393 1388 1384 1381 1379 1378 1377 1379 1380 1384 1387 1391 1395 1400 1404 1408 1413 1417 1422 1426 1430 1434 1438 1442 1446 1451 1455 1458 1461 1464 1467 1470 1473 1476 1479
1434 1429 1424 1420 1415 1410 1407 1401 1396 1392 1388 1384 1381 1380 1379 1379 1381 1383 1385 1388 1392 1395 1399 1403 1408 1412 1417 1421 1425 1429 1433 1437 1442 1446 1450 1453 1456 1460 1464 1467 1470 1473 1476
1434 1429 1424 1420 1416 1412 1409 1404 1399 1395 1391 1387 1385 1383 1381 1380 1381 1383 1385 1387 1390 1392 1396 1399 1403 1407 1411 1416 1420 1424 1428 1432 1436 1440 1444 1448 1453 1456 1460 1463 1466 1469 1472
1434 1429 1425 1421 1417 1413 1410 1406 1402 1398 1394 1391 1388 1386 1384 1383 1382 1384 1385 1387 1388 1390 1393 1396 1399 1403 1407 1411 1415 1419 1422 1426 1430 1434 1439 1442 1446 1450 1454 1458 1462 1465 1467
1434 1430 1425 1422 1418 1414 1410 1407 1403 1400 1397 1395 1392 1390 1387 1386 1385 1386 1387 1389 1390 1391 1392 1395 1397 1400 1403 1406 1411 1414 1418 1422 1426 1429 1433 1436 1440 1444 1448 1452 1456 1459 1462
1435 1431 1427 1422 1419 1415 1411 1408 1404 1401 1399 1397 1396 1394 1392 1389 1388 1388 1389 1391 1392 1393 1393 1394 1396 1398 1400 1403 1406 1410 1414 1417 1421 1424 1428 1431 1435 1439 1444 1447 1451 1454 1457
1437 1432 1428 1424 1420 1415 1412 1409 1406 1403 1401 1399 1398 1397 1395 1394 1392 1391 1392 1393 1394 1394 1395 1395 1396 1398 1400 1402 1405 1407 1410 1414 1416 1420 1424 1428 1431 1436 1440 1443 1447 1449 1452